Terminal Aerodrome Forecast
Issued by NWS Brownsville, TX

Home | Current Version | Previous Version | Text Only | Print | Product List | Glossary On
Versions: 1 2 3 4 5 6 7 8 9 10 11 12 13 14 15 16 17 18
000
FTUS44 KBRO 021120
TAFMFE
TAF
KMFE 021120Z 0212/0312 11004KT P6SM SKC
     FM022000 09009KT P6SM VCSH BKN050
     FM030000 11005KT P6SM SKC=

USA.gov is the U.S. government's official web portal to all federal, state and local government web resources and services.